Temp
45 42 41 41 41 42 40 40 39 40 40 39 38 39 38 40 41 43 43 44 46 47 47 47 47 48 53 62 67 65 63 62 69 66 68 68 69 71 72 75 75 74 71
42 41 39 40 39 38 39 38 37 38 38 38 38 37 37 38 39 40 41 43 45 46 48 49 48 49 52 54 66 65 62 62 65 65 63 55 59 65 68 70 73 73 74
39 41 36 34 34 33 34 35 34 35 36 37 37 37 38 38 39 40 42 43 44 45 45 47 46 44 48 51 65 65 64 61 62 67 67 55 55 58 62 63 68 72 69
39 38 36 31 31 29 33 32 33 32 35 36 34 33 31 31 35 37 39 39 41 42 44 45 47 46 46 50 60 65 65 64 60 65 72 70 68 59 52 59 64 66 69
34 35 35 31 29 28 27 30 29 30 31 32 33 31 30 32 34 35 35 37 39 41 43 45 46 45 46 48 53 65 65 65 64 64 66 68 68 69 62 53 54 61 65
33 33 35 33 29 29 27 28 27 28 29 29 30 30 29 30 31 32 32 34 36 39 41 45 46 46 47 50 52 64 65 65 65 65 65 66 66 65 64 63 56 55 59
29 31 32 31 30 27 26 25 25 24 27 27 28 29 29 29 29 30 31 31 33 35 38 43 43 44 46 48 54 62 63 64 64 65 65 68 70 71 69 68 59 55 60
30 29 30 30 27 26 25 24 23 22 25 25 26 28 29 30 30 30 31 32 32 35 37 40 41 42 43 46 48 62 63 64 64 65 66 67 69 70 70 68 63 58 59
29 29 29 28 27 25 23 22 21 21 23 25 25 26 29 29 29 30 31 32 34 36 37 39 39 42 44 45 46 62 62 63 65 64 65 66 69 70 70 71 68 64 55
29 28 28 27 26 24 22 21 22 22 23 24 25 26 27 28 29 29 29 32 34 36 36 38 39 41 43 45 48 62 63 63 64 64 63 65 68 68 69 68 68 69 65
27 26 26 26 24 23 22 21 21 21 22 23 24 25 26 27 28 28 30 32 32 34 36 37 39 40 43 46 51 61 63 63 63 63 63 62 67 66 70 67 68 69 68
26 25 24 24 23 23 23 21 21 20 22 22 23 23 25 25 26 27 29 29 31 34 36 37 40 41 43 47 56 60 61 62 61 62 61 62 65 66 69 68 67 67 68
27 26 25 24 23 21 20 21 21 21 21 22 22 23 24 24 25 27 28 29 32 35 36 39 41 43 45 50 57 59 60 61 62 62 61 62 64 65 67 67 67 66 67
26 27 26 23 23 20 19 19 21 21 21 20 21 21 23 24 25 27 27 30 34 35 35 39 44 47 49 50 53 61 59 59 61 61 61 60 61 64 66 66 67 65 64
29 28 28 27 23 21 21 20 20 20 19 19 21 21 22 25 25 25 26 30 33 32 34 38 41 43 44 45 46 59 59 59 58 59 60 59 58 58 63 65 66 64 63
30 30 29 29 27 23 22 22 19 18 19 18 20 22 22 23 24 25 26 29 30 31 32 33 35 39 43 44 45 46 58 57 58 57 58 58 51 53 55 56 58 63 62
30 29 29 29 29 27 24 21 20 19 18 19 19 22 22 22 23 24 24 26 28 30 30 32 34 36 39 43 44 47 54 59 59 58 57 57 57 54 58 54 54 55 56
30 30 30 30 31 30 27 24 23 22 20 20 20 21 20 21 23 24 24 25 28 28 28 29 33 34 38 41 41 43 47 51 59 59 58 57 56 55 57 56 58 60 59
31 31 32 32 32 30 29 26 26 25 24 22 21 21 21 21 22 22 23 25 27 27 28 29 31 33 35 39 40 39 42 43 45 49 57 58 57 53 52 56 55 59 60
33 30 30 30 30 31 28 26 26 26 25 24 24 25 23 22 21 22 25 25 27 28 28 28 29 34 32 38 39 37 37 38 40 43 43 42 43 49 51 56 55 55 59
33 31 30 29 30 30 28 27 27 25 25 26 27 27 26 25 24 24 26 27 27 27 28 28 29 29 32 33 38 38 35 34 36 37 37 39 41 42 44 46 56 56 59
31 31 29 29 30 29 27 27 26 26 25 26 26 26 27 27 26 25 25 27 28 28 28 28 30 31 30 35 35 36 35 35 33 32 34 35 38 40 42 45 48 50 52
31 31 30 30 29 28 27 27 28 27 26 26 25 26 27 27 27 26 26 28 29 28 27 27 28 29 32 32 35 35 35 33 30 31 33 34 35 36 38 39 41 46 52
28 29 28 28 28 28 26 28 27 26 25 25 24 25 25 26 27 28 29 29 28 28 27 27 27 29 30 31 31 32 31 32 29 30 30 32 33 33 33 34 35 37 38
23 25 25 26 27 28 27 27 26 25 24 24 24 24 25 24 26 27 27 28 30 31 28 28 28 27 27 28 32 31 29 30 30 29 27 26 26 25 26 29 29 30 32
21 20 21 22 23 23 25 25 25 24 24 24 24 24 24 24 24 25 27 28 29 30 31 32 31 30 31 32 31 31 31 30 30 27 24 23 23 21 22 23 24 26 27
MSLP
1021.10 1021.86 1022.37 1022.78 1023.24 1023.36 1023.50 1023.58 1023.53 1023.20 1022.78 1022.13 1021.46 1020.71 1020.18 1019.83 1019.35 1018.90 1018.56 1018.17 1017.67 1017.18 1016.65 1016.07 1015.56 1014.76 1013.53 1011.87 1011.32 1011.77 1012.21 1013.78 1014.07 1014.79 1015.46 1016.44 1016.68 1016.59 1017.09 1017.28 1017.73 1018.40 1019.23
1020.98 1021.41 1022.11 1022.77 1023.27 1023.64 1023.74 1023.67 1023.41 1023.05 1022.48 1021.86 1021.26 1020.79 1020.11 1019.55 1019.19 1018.75 1018.24 1017.66 1017.03 1016.42 1015.78 1015.25 1014.73 1014.09 1012.91 1011.76 1010.28 1010.69 1011.40 1012.82 1013.38 1013.67 1014.57 1015.78 1017.06 1017.10 1017.31 1017.44 1017.55 1018.13 1018.49
1020.68 1020.95 1022.04 1022.77 1023.44 1023.91 1023.78 1023.67 1023.37 1022.89 1022.30 1021.72 1021.15 1020.47 1019.99 1019.15 1018.39 1017.82 1017.15 1016.84 1016.49 1016.09 1015.63 1014.82 1014.17 1013.53 1012.92 1010.96 1008.53 1008.65 1010.23 1011.09 1012.54 1012.80 1012.06 1014.07 1014.96 1016.51 1017.39 1017.62 1017.78 1017.72 1018.61
1020.80 1021.23 1022.07 1022.81 1023.43 1023.77 1023.80 1023.55 1023.11 1022.74 1021.97 1021.72 1021.13 1020.58 1020.07 1019.15 1018.52 1017.88 1017.15 1016.64 1016.22 1015.46 1014.78 1014.05 1013.24 1012.31 1011.62 1011.10 1008.71 1007.78 1008.72 1009.66 1010.63 1011.93 1011.52 1012.08 1012.75 1014.61 1016.61 1017.30 1017.84 1017.91 1017.93
1021.06 1021.48 1022.13 1022.89 1023.28 1023.67 1023.57 1023.14 1022.95 1022.34 1022.08 1021.57 1021.05 1020.56 1019.84 1019.13 1018.24 1017.66 1016.83 1016.04 1015.23 1014.57 1013.89 1013.10 1012.27 1011.47 1010.79 1009.70 1010.07 1006.51 1007.33 1008.27 1008.98 1010.38 1010.68 1011.48 1012.22 1013.40 1014.36 1015.84 1017.39 1018.00 1017.92
1021.37 1021.90 1022.20 1022.58 1022.93 1023.11 1022.95 1022.78 1022.48 1022.15 1021.66 1021.20 1020.88 1020.32 1019.45 1018.62 1017.73 1016.87 1016.05 1015.17 1014.44 1013.68 1012.90 1011.96 1011.28 1010.66 1009.81 1009.27 1007.50 1005.11 1005.85 1006.97 1008.20 1009.08 1009.56 1010.25 1010.93 1011.97 1012.80 1013.89 1016.19 1017.09 1017.86
1021.46 1021.67 1021.83 1022.16 1022.38 1022.50 1022.61 1022.52 1022.41 1021.98 1021.42 1021.06 1020.62 1019.83 1018.94 1018.07 1016.98 1016.13 1015.32 1014.49 1013.49 1012.75 1011.83 1010.89 1010.25 1009.54 1009.01 1008.40 1007.64 1004.39 1004.73 1005.82 1007.07 1007.75 1008.60 1009.65 1010.14 1011.13 1011.75 1012.90 1015.08 1016.07 1017.06
1021.16 1021.41 1021.63 1021.91 1022.16 1022.30 1022.29 1022.32 1022.15 1021.68 1021.18 1020.71 1020.04 1019.14 1018.17 1017.21 1016.21 1015.37 1014.53 1013.51 1012.61 1011.78 1011.08 1010.01 1009.27 1008.35 1007.07 1006.68 1005.64 1004.21 1003.70 1004.73 1006.05 1006.89 1007.78 1008.75 1009.41 1010.19 1010.79 1011.68 1013.47 1015.26 1015.89
1020.72 1020.98 1021.23 1021.64 1021.80 1021.92 1022.00 1022.21 1021.92 1021.38 1020.90 1020.20 1019.55 1018.52 1017.31 1016.37 1015.37 1014.47 1013.56 1012.54 1011.55 1010.60 1009.95 1009.11 1008.16 1006.82 1006.51 1006.41 1005.44 1002.34 1003.09 1003.73 1004.98 1005.99 1007.00 1007.82 1008.68 1009.64 1010.22 1011.03 1012.05 1012.97 1014.35
1020.34 1020.73 1020.81 1021.05 1021.42 1021.55 1021.77 1021.72 1021.52 1021.03 1020.43 1019.68 1018.85 1017.84 1016.69 1015.57 1014.56 1013.52 1012.33 1011.33 1010.20 1009.42 1008.65 1007.73 1007.22 1006.45 1005.96 1005.66 1004.40 1001.03 1002.42 1003.17 1003.87 1005.29 1006.41 1007.04 1008.12 1009.10 1009.86 1010.58 1011.41 1012.15 1012.93
1019.96 1020.17 1020.33 1020.73 1021.02 1021.29 1021.38 1021.31 1021.07 1020.56 1019.88 1019.15 1018.30 1017.16 1015.96 1014.72 1013.67 1012.51 1011.25 1010.10 1009.17 1008.26 1007.42 1006.41 1005.14 1004.54 1003.52 1002.37 1002.00 1000.46 1001.08 1002.20 1003.33 1004.38 1005.15 1006.31 1007.45 1008.37 1009.05 1010.14 1010.61 1011.47 1012.18
1019.50 1019.76 1020.02 1020.35 1020.66 1020.92 1021.03 1021.02 1020.63 1020.22 1019.52 1018.76 1017.84 1016.66 1015.30 1014.04 1012.88 1011.57 1010.30 1009.12 1007.89 1006.86 1006.09 1005.45 1004.38 1003.73 1003.30 1001.96 1000.33 999.73 1000.41 1001.32 1002.41 1003.26 1004.09 1005.68 1006.75 1007.54 1008.10 1009.09 1009.86 1010.75 1011.63
1018.93 1019.25 1019.59 1019.84 1020.30 1020.61 1020.84 1020.69 1020.35 1019.92 1019.20 1018.31 1017.37 1016.15 1014.70 1013.40 1012.13 1010.66 1009.41 1007.95 1006.45 1005.22 1004.47 1003.55 1002.56 1002.24 1001.86 1001.00 999.50 999.27 999.58 1000.51 1001.25 1002.35 1003.50 1004.80 1005.68 1006.46 1007.24 1008.18 1009.24 1010.07 1010.94
1018.35 1018.57 1018.88 1019.28 1019.81 1020.23 1020.50 1020.34 1020.00 1019.68 1018.94 1018.02 1017.04 1015.98 1014.47 1013.05 1011.68 1010.33 1009.02 1007.66 1005.95 1003.97 1002.64 1001.86 1002.36 1001.42 1000.38 1000.12 998.77 998.74 999.48 1000.10 1000.61 1001.35 1002.63 1003.78 1004.74 1005.46 1006.37 1007.34 1008.25 1009.26 1010.18
1017.48 1017.75 1018.03 1018.43 1019.19 1019.66 1019.80 1019.86 1019.67 1019.33 1018.87 1017.91 1016.86 1015.81 1014.38 1012.87 1011.50 1010.31 1008.83 1007.24 1005.78 1003.92 1003.91 1003.55 1003.00 1001.98 1000.79 1000.05 999.00 998.88 999.25 999.78 1000.65 1001.19 1002.01 1003.29 1003.82 1004.81 1005.45 1006.34 1007.25 1008.36 1009.30
1016.64 1016.91 1017.38 1017.81 1018.37 1018.89 1019.12 1019.28 1019.19 1018.95 1018.65 1017.86 1016.82 1015.80 1014.40 1012.82 1011.46 1010.37 1009.11 1007.15 1005.77 1005.50 1004.73 1004.07 1002.86 1001.39 1000.37 1000.69 1000.09 999.72 999.07 999.84 1000.68 1001.21 1001.80 1002.64 1003.67 1004.37 1005.07 1005.76 1006.27 1007.20 1007.96
1015.98 1016.39 1016.77 1017.17 1017.58 1018.08 1018.61 1018.74 1018.78 1018.59 1018.29 1017.70 1016.83 1015.92 1014.84 1013.38 1011.44 1009.86 1007.88 1007.74 1007.69 1006.43 1005.96 1005.18 1003.04 1001.53 1001.37 1001.03 1000.14 999.50 999.63 999.98 1000.62 1000.91 1001.71 1002.44 1003.23 1004.07 1004.58 1005.45 1006.00 1006.73 1007.15
1015.48 1015.86 1016.26 1016.66 1016.99 1017.49 1018.05 1018.31 1018.28 1018.14 1017.85 1017.45 1016.85 1016.00 1015.18 1014.22 1012.74 1011.29 1010.60 1009.18 1008.27 1007.51 1005.62 1006.02 1004.10 1002.70 1002.47 1001.65 1001.29 1000.51 1000.35 1000.37 1000.77 1000.55 1001.36 1001.80 1002.51 1003.31 1004.19 1005.21 1005.77 1006.38 1007.08
1015.03 1015.41 1015.85 1016.30 1016.74 1017.07 1017.56 1017.81 1017.69 1017.60 1017.37 1017.05 1016.72 1016.20 1015.50 1014.91 1014.05 1012.66 1010.81 1010.27 1009.67 1009.21 1008.47 1007.42 1004.54 1003.88 1003.28 1003.20 1002.44 1001.92 1001.78 1001.19 1001.78 1001.64 1001.07 1001.29 1002.07 1002.87 1003.65 1004.30 1005.09 1005.71 1006.39
1015.04 1015.31 1015.73 1016.26 1016.63 1016.80 1017.21 1017.41 1017.33 1017.21 1016.98 1016.85 1016.48 1016.13 1015.80 1015.28 1014.55 1013.93 1012.76 1011.41 1009.94 1008.90 1009.88 1007.54 1006.38 1005.13 1005.06 1004.87 1004.10 1003.63 1002.73 1003.50 1003.02 1002.87 1002.97 1003.19 1003.40 1002.42 1002.85 1003.67 1004.24 1005.00 1005.35
1014.78 1015.21 1015.57 1015.75 1016.14 1016.58 1016.91 1016.91 1017.06 1017.03 1017.11 1016.81 1016.36 1015.86 1015.67 1015.43 1015.20 1014.45 1013.90 1013.40 1012.44 1010.98 1008.56 1008.88 1007.58 1005.61 1005.86 1005.78 1005.29 1004.53 1004.60 1005.32 1004.48 1004.13 1003.88 1004.36 1004.48 1004.48 1004.09 1003.93 1003.32 1003.85 1004.79
1014.67 1014.88 1015.18 1015.39 1015.84 1016.32 1016.66 1016.60 1016.73 1017.11 1017.22 1016.92 1016.43 1015.90 1015.35 1014.98 1015.01 1014.50 1013.94 1012.81 1011.99 1011.54 1010.59 1008.30 1007.83 1008.00 1007.82 1007.65 1007.42 1006.62 1006.43 1005.80 1005.99 1005.23 1005.52 1005.76 1005.33 1005.09 1004.45 1003.69 1003.91 1004.23 1004.54
1014.51 1014.67 1014.88 1015.04 1015.47 1015.95 1016.31 1016.37 1016.55 1016.93 1017.09 1016.99 1016.67 1016.24 1015.78 1015.30 1014.68 1013.98 1013.59 1012.61 1011.81 1011.08 1010.33 1009.97 1009.53 1009.59 1009.31 1009.37 1008.51 1007.01 1006.32 1007.13 1006.22 1006.48 1006.39 1006.68 1005.91 1005.79 1005.51 1005.01 1004.56 1004.37 1004.58
1014.67 1014.69 1014.85 1014.90 1015.00 1015.61 1016.05 1016.29 1016.62 1016.93 1017.01 1017.00 1016.97 1016.66 1016.24 1015.78 1015.46 1014.88 1014.07 1013.36 1012.63 1012.18 1011.67 1011.13 1011.11 1010.88 1010.07 1009.58 1009.06 1008.85 1008.33 1008.07 1007.39 1007.51 1007.42 1007.59 1007.10 1006.40 1006.57 1006.18 1006.05 1006.01 1006.12
1014.90 1014.92 1014.90 1014.93 1015.00 1015.41 1015.87 1016.23 1016.62 1016.96 1017.07 1017.15 1017.19 1017.08 1016.86 1016.53 1016.00 1015.56 1015.20 1014.53 1013.91 1013.38 1013.08 1012.95 1012.61 1011.97 1011.54 1011.34 1010.79 1009.66 1009.61 1009.49 1009.31 1009.09 1008.86 1008.25 1008.16 1007.45 1007.87 1008.15 1007.46 1007.42 1006.99
1015.09 1015.22 1015.20 1015.30 1015.40 1015.71 1015.97 1016.33 1016.64 1016.90 1017.08 1017.24 1017.35 1017.38 1017.29 1017.10 1016.81 1016.34 1015.95 1015.92 1015.51 1014.99 1014.51 1014.12 1013.72 1013.40 1012.90 1012.48 1012.02 1011.47 1011.08 1010.58 1010.22 1009.83 1009.93 1009.93 1010.26 1010.41 1009.97 1009.82 1009.25 1008.86 1008.56
Wind_Speed
6 4 3 5 7 10 11 12 12 13 11 9 10 10 10 10 10 11 16 16 15 16 15 11 13 13 14 14 17 15 17 9 12 11 9 7 9 11 10 10 10 12 9
9 6 5 5 7 10 11 11 12 13 11 9 10 10 11 11 12 12 15 17 18 17 15 15 13 15 13 18 22 18 11 9 13 11 11 5 3 7 9 8 10 13 10
9 7 4 6 7 9 9 11 11 13 12 13 10 10 11 12 12 12 12 13 16 17 17 18 15 14 13 12 21 21 23 15 13 16 11 8 6 9 7 9 10 14 9
7 8 7 7 8 9 9 9 11 12 12 13 12 15 13 15 12 14 14 15 18 19 19 19 17 16 12 17 15 19 19 16 17 12 13 12 10 10 5 5 10 9 12
6 7 7 8 9 8 8 8 9 11 12 12 13 12 15 13 13 13 19 18 17 19 20 20 17 16 12 14 23 23 23 18 18 14 15 12 9 15 9 7 6 7 8
6 8 9 9 10 7 7 8 9 12 12 12 14 16 17 17 15 15 15 14 13 13 18 18 17 15 13 18 16 23 24 19 18 15 16 13 13 15 13 11 11 9 8
7 9 9 9 9 8 8 8 10 13 12 13 15 16 17 19 20 18 14 17 13 12 15 16 14 12 12 14 18 18 22 21 18 20 15 12 12 13 11 10 10 7 6
7 8 8 9 9 8 8 9 10 12 13 14 15 16 17 12 13 16 15 14 14 13 18 16 15 16 15 16 16 17 16 20 18 22 18 13 12 12 12 11 13 11 7
6 8 8 8 8 7 7 8 10 12 13 14 13 16 16 17 15 19 17 13 17 15 19 19 17 14 16 17 20 16 19 18 20 19 20 14 12 12 12 11 13 13 10
7 8 8 8 7 5 7 8 9 11 13 14 13 13 16 17 17 16 18 19 17 17 17 18 16 15 14 17 20 18 22 20 17 16 20 15 13 13 12 11 12 11 11
9 8 7 7 6 6 6 8 9 10 11 12 14 15 15 16 17 16 16 16 16 16 16 17 15 14 15 15 19 18 22 24 22 20 21 20 19 14 13 12 12 11 10
8 8 8 7 6 6 6 8 9 9 10 11 13 15 15 15 16 16 15 14 15 16 16 15 13 14 14 18 16 17 21 24 25 24 21 22 15 21 18 14 15 13 12
8 7 7 6 5 5 6 7 8 9 10 11 13 14 15 14 16 16 14 14 15 12 11 11 11 13 16 16 13 11 12 25 24 23 23 23 21 20 16 16 15 13 10
8 7 7 6 5 5 5 6 8 8 10 10 12 13 15 15 15 15 15 12 9 9 10 11 11 9 6 5 7 14 13 11 20 22 21 21 21 22 21 17 17 14 12
8 8 7 6 4 5 4 5 6 7 9 10 11 13 15 15 15 15 14 11 12 11 7 5 4 4 8 8 8 5 12 11 11 19 20 19 21 22 22 15 17 16 13
7 7 7 7 6 3 4 4 6 7 8 9 10 12 14 15 16 15 14 14 16 12 7 9 7 8 11 16 12 6 11 9 10 11 16 17 17 17 19 19 19 20 18
6 8 9 7 5 3 2 4 5 6 7 8 9 12 13 15 18 19 21 18 14 13 9 9 9 15 15 22 18 11 2 12 12 12 13 14 13 18 17 16 16 19 20
7 7 8 7 6 4 3 3 4 6 6 8 9 10 11 13 15 16 14 15 12 13 12 11 10 13 17 28 23 16 10 4 12 13 13 13 15 16 18 17 17 17 16
5 5 7 7 6 5 2 3 4 5 7 9 10 10 11 11 13 14 16 13 10 10 7 9 13 16 18 31 28 16 7 11 10 11 6 15 16 20 22 18 19 17 15
5 6 8 7 7 6 4 3 3 5 8 9 10 9 9 9 11 11 12 14 14 14 9 12 14 23 17 29 30 20 9 10 7 9 13 25 17 9 25 17 17 16 15
6 6 9 9 8 6 5 5 2 4 6 8 9 10 10 9 9 11 10 10 8 8 14 10 13 19 21 21 30 29 13 8 7 8 9 9 17 13 4 7 13 14 12
8 8 9 8 8 7 6 5 3 2 3 6 8 9 11 9 8 10 10 10 10 9 9 14 13 12 13 25 23 26 23 19 9 9 7 7 14 14 11 7 7 9 13
6 7 9 8 8 9 8 6 3 1 2 5 7 8 9 9 10 11 10 10 11 11 13 12 12 12 11 10 23 26 26 22 12 10 14 14 16 15 10 18 16 5 5
6 6 7 9 9 9 8 7 5 3 1 4 5 6 8 9 9 7 9 10 10 10 10 12 11 10 11 12 12 11 11 17 13 13 11 13 14 17 14 11 11 8 8
5 5 7 7 7 7 8 6 5 5 2 2 4 5 5 7 7 7 9 9 11 12 10 9 10 11 11 13 18 18 12 9 12 10 7 10 11 11 11 9 9 8 8
4 5 5 4 5 5 6 7 5 5 3 1 2 3 3 4 4 5 5 12 14 18 18 21 15 10 19 22 21 21 24 22 18 10 11 10 10 10 9 9 9 8 10
Wind_Direction
260 236 286 336 335 332 322 314 310 313 316 311 313 314 308 302 296 292 288 284 279 277 274 269 271 274 255 258 202 188 168 194 188 165 162 164 175 178 184 181 184 182 179
245 233 257 310 333 325 308 307 308 311 314 312 317 310 306 298 294 288 281 280 276 271 267 262 259 260 267 285 203 186 173 172 185 169 153 144 153 197 187 187 180 183 186
272 272 251 307 327 308 306 302 304 308 308 312 310 306 296 289 287 286 285 284 284 281 274 269 265 270 275 271 199 183 183 176 178 182 169 154 178 157 180 195 188 181 189
263 268 266 295 302 292 293 297 303 307 311 312 307 303 294 290 288 287 285 283 277 274 271 266 263 261 273 258 257 183 185 174 175 181 208 181 143 174 157 179 200 190 188
273 260 253 278 285 281 291 301 299 306 305 304 304 296 286 283 285 282 282 276 276 272 267 259 259 256 254 272 263 182 186 179 177 187 189 185 169 188 165 164 174 194 191
254 255 266 275 271 282 302 307 314 304 308 305 300 291 287 285 281 278 278 275 276 274 269 258 251 250 256 258 263 203 185 178 182 189 183 186 181 184 172 176 174 175 180
268 263 271 273 281 302 311 312 309 301 308 302 294 291 288 285 281 279 273 272 270 264 263 259 256 251 253 275 246 207 178 181 184 185 186 185 192 184 171 178 171 174 169
258 251 266 275 278 290 305 307 303 303 305 300 295 295 291 284 279 273 270 267 265 263 263 264 265 261 265 273 286 208 187 179 187 186 189 186 188 184 182 169 167 173 179
277 261 275 266 276 285 296 294 297 298 296 298 297 297 297 291 282 278 271 267 263 261 260 259 256 264 265 266 271 194 186 185 183 188 188 186 187 186 180 175 174 173 176
279 265 266 272 270 286 291 293 292 293 298 303 298 298 298 294 287 279 271 265 264 262 261 260 254 252 249 260 262 194 187 188 187 185 187 185 190 187 181 177 178 176 177
280 277 274 269 278 285 288 293 296 304 303 304 302 302 299 303 293 284 277 272 269 261 257 257 259 260 263 273 269 194 185 188 187 185 185 187 189 189 185 180 182 187 181
276 277 274 274 279 284 298 295 303 304 304 305 304 305 304 308 298 296 290 283 271 261 250 246 254 251 250 262 260 196 189 189 188 186 179 188 188 192 187 186 186 186 188
272 262 255 256 263 280 291 296 303 306 310 311 310 311 313 316 310 308 306 298 280 261 251 255 261 254 258 247 248 184 186 194 187 182 185 187 188 189 188 187 186 185 185
257 252 248 247 250 263 278 293 307 316 319 315 315 315 320 322 320 318 314 304 307 322 336 311 265 244 245 280 288 178 176 192 189 182 184 182 190 189 187 187 186 185 183
237 228 238 251 238 258 274 295 304 323 326 319 323 323 321 326 329 328 322 338 354 358 341 41 8 46 37 9 356 180 175 181 197 184 181 184 188 193 188 186 187 184 185
245 226 228 246 255 234 282 299 313 326 329 317 330 328 329 333 334 341 333 358 8 359 351 9 0 45 41 16 19 356 162 153 173 181 183 183 183 193 185 190 185 190 184
242 221 221 233 249 249 259 300 313 317 326 329 328 338 338 339 343 348 354 1 353 1 357 345 359 43 34 28 27 44 241 176 191 175 195 185 187 192 194 190 187 191 194
229 215 212 219 231 223 228 280 311 326 330 336 341 341 342 348 346 348 352 347 1 355 11 340 21 41 35 32 34 37 48 14 194 179 187 182 184 190 194 192 201 201 200
211 209 203 208 221 224 208 283 326 341 348 351 348 344 339 349 352 348 346 351 357 356 350 327 31 37 34 32 32 29 41 47 37 45 242 192 191 189 189 190 195 199 203
230 203 193 195 219 222 211 246 329 342 357 352 345 354 349 344 354 355 6 349 354 1 307 10 30 31 28 31 37 35 29 33 36 40 46 36 23 189 184 191 189 200 201
239 215 197 202 214 209 213 247 291 358 350 342 346 353 1 354 357 352 8 12 357 355 12 13 33 22 24 24 29 33 34 14 32 44 39 23 17 24 319 296 193 198 192
242 217 208 208 203 198 208 239 266 76 359 347 351 356 358 1 359 359 1 7 13 19 16 29 35 33 29 29 26 34 38 30 25 39 30 9 15 12 24 18 262 214 186
245 222 216 211 201 201 207 221 226 154 29 9 359 356 357 7 359 6 7 15 18 16 23 25 28 23 22 21 25 28 31 27 33 24 24 18 31 23 25 36 21 281 211
257 227 219 220 212 202 204 220 173 168 38 20 15 1 0 3 10 9 17 19 21 26 25 24 21 20 17 17 19 24 21 21 30 19 25 24 32 43 24 28 33 33 12
244 234 232 229 228 197 203 196 190 176 162 33 17 13 15 2 7 23 15 25 22 32 27 31 21 18 23 20 22 24 25 26 35 38 31 30 22 29 24 13 25 20 24
245 234 234 227 227 207 198 186 183 182 166 124 41 20 14 17 16 13 36 43 38 33 39 35 40 28 28 27 28 32 30 33 32 41 36 36 30 21 24 10 6 18 18